STARLINK-1903, 46764

Orbit data source: Space-Track

STARLINK-1903, 46764 is a payload satellite owned by SpaceX/Seattle (US) in LEO that was launched on Sat, 24 Oct 2020 UTC via an FALCON 9 launch vehicle from the Air Force Eastern Test Range (AFETR). Payload-class satellites include a variety of spacecraft equipped with specific instruments for various scientific and technological missions. These include communications satellites like Starlink; space stations such as the ISS; scientific satellites like the Hubble; Earth observation satellites from companies like Planet Labs, Umbra, and HawkEye 360; GPS; miniature CubeSats for education and research; and military/defense satellites.

Loading next visibility...
Identifier
46764, 2020-074AB
Orbit
LEO
Country
Flag of USUS
Related business
Manufacturer
SpaceX/Seattle
Mission
Partially operational Commercial Communications
Bus & Motor
STARLINK, Unknown motor
Mass
260 kg wet, ~248 kg dry
Launch date (UTC)
2020-10-24 (5 years ago)
Launch vehicle
FALCON 9
Launch site
Air Force Eastern Test Range (AFETR)
Object type
Payload
Rocket body
Debris
Shape & HBR
Box + 1 Pan, 10.1 m
Radar Cross Section
13.562 m², Large (>1 m²)

Expand to show TLE details & history
Last TLE update: 3 hours ago

TLE from 3 hours ago
0 STARLINK-1903
1 46764U 20074AB  25291.33336806  .00284100  00000-0  13804-2 0  9994
2 46764  53.0145 160.7767 0006647 176.4013  59.9255 15.81093473  5928
Epoch: 2025-10-18T08:00Z
TLE epoch observation values (Epoch: 2025-10-18T08:00:03.000Z)
Latitude
-41.90696°
Longitude
-124.06993°
Altitude
339.044 km
Speed
7.706 km/s
True Right ascension
01h 32m 02s
True Declination
-41° 43' 31"
Sunlit
Object was in full shadow at epoch
Visualization orbit readout
Latitude
Unknown
Longitude
Unknown
Altitude
Unknown
Speed
Unknown
Apparent Right ascension
Unknown
Apparent Declination
Unknown
Sunlit
N/A
Visualization observer readout
Local Sidereal Time
06:05:07
Azimuth
Unknown
Elevation
Unknown
Doppler factor
Unknown
Orbital elements
Apogee altitude
332.09 km
Perigee altitude
323.176 km
Semi-major axis
6,705.77 km
Eccentricity
0.00066
Inclination
53.0145°
RAAN
160.7767°
Arg. of periapsis
176.4013°
True anomaly
59.99144°
Mean anomaly
59.9255°
Eccentric anomaly
59.95847°
Mean motion
3.95248 °/min
Orbital period
91.08 mins
BSTAR
0.0013804
Loading maneuver chart data...
Computing Atmospheric mass density...

Documentation

Showing up to 5 results
|